Regional Weather Roundup
Issued by NWS

Home | Current Version | Previous Version | Text Only | Print | Product List | Glossary On
Versions: 1 2 3 4 5 6 7 8 9 10 11 12 13 14 15 16 17 18 19 20 21 22 23 24 25 26 27 28 29 30 31 32 33 34 35 36 37 38 39 40 41 42 43 44 45 46 47 48 49 50
187
ASUS43 KLMK 200602
RWRKY
KENTUCKY REGIONAL WEATHER ROUNDUP
NATIONAL WEATHER SERVICE LOUISVILLE KY
100 AM EST TUE FEB 20 2018

NOTE "FAIR" INDICATES FEW OR NO CLOUDS BELOW 12,000 FEET
WITH NO SIGNIFICANT WEATHER AND/OR OBSTRUCTIONS TO VISIBILITY.

KYZ001>023-026-027-061>063-070>075-200700-
WESTERN AND SOUTH CENTRAL KENTUCKY

CITY           SKY/WX    TMP DP  RH WIND       PRES   REMARKS
PADUCAH        FAIR      68  58  70 S12G23    30.01S
HENDERSON      FAIR      66  58  75 S20G25    30.03S
OWENSBORO      FAIR      66  58  75 S15       30.06S
HOPKINSVILLE   FAIR      69  57  67 S13G20    30.10R
BOWLING GREEN  FAIR      67  56  67 S14G22    30.14R
GLASGOW        NOT AVBL
$$

KYZ024-025-028>034-038-045-046-053-200700-
NORTH CENTRAL KENTUCKY

CITY           SKY/WX    TMP DP  RH WIND       PRES   REMARKS
LOUISVILLE/SDF CLOUDY    68  56  65 S14G23    30.10R
LOUISVILLE/LOU FAIR      65  58  78 S10       30.11R
FORT KNOX      FAIR      64  56  76 S16G24    30.11R
$$

KYZ035>037-039>044-047>052-055>060-089>105-200700-
NORTHEAST KENTUCKY

CITY           SKY/WX    TMP DP  RH WIND       PRES   REMARKS
LEXINGTON      FAIR      62  55  77 S14       30.16R
COVINGTON      MOCLDY    62  56  80 S12       30.10R
FRANKFORT      FAIR      63  54  72 S10       30.12S
$$

KYZ054-064>069-076>088-106>120-200700-
SOUTHEAST KENTUCKY

CITY           SKY/WX    TMP DP  RH WIND       PRES   REMARKS
JACKSON        MOCLDY    65  53  65 S9G18     30.22R
LONDON         FAIR      64  54  69 S6        30.22S
SOMERSET       NOT AVBL
MIDDLESBORO    FAIR      63  55  77 S8        30.27S
MONTICELLO     NOT AVBL
$$





USA.gov is the U.S. government's official web portal to all federal, state and local government web resources and services.